[[{"header":{"parameterUnit":"m.s-1","parameterCategory":1,"la1":30.2991,"la2":30.254,"lo1":-89.0895,"lo2":-89.0444,"dx":0.0017,"dy":0.0017,"nx":28,"ny":28,"refTime":"2022-12-15T09:00:00:Z","depth":0,"parameterNumber":2,"parameterNumberName":"U-component_of_WINDS"},"data":[0,0,0,0,0,0,0,0,0,0,0,0,0,0,0,0,0,0,0,0,0,0,0,0,0,0,0,0,0,0,0,0,0,0,0,0,0,0,0,0,0,0,0,0,0,0,0,0,0,0,0,0,0,0,0,0,0,0,3.2818,3.2819,0,3.2871,3.2871,3.2872,3.2841,3.284,3.2838,3.2837,3.2889,3.2892,3.2895,0,0,0,0,0,0,0,0,0,0,0,0,0,3.2691,3.2694,3.2818,3.2819,3.2819,3.2871,3.2871,3.2872,3.2841,3.284,3.2838,3.2836,3.2888,3.2892,3.2895,0,0,0,0,0,0,0,0,0,0,0,0,0,3.2745,3.2695,3.2818,3.281,3.281,3.287,3.2871,3.2872,3.2842,3.2839,3.2837,3.2835,3.2887,3.2891,3.2895,3.2966,0,0,3.2908,3.291,0,0,0,0,0,0,0,0,3.2742,3.275,3.2811,3.2811,3.2811,3.2847,3.2846,3.2904,3.2842,3.283,3.2837,3.2834,3.2877,3.2882,3.2896,3.2968,3.297,3.2908,3.2911,3.2913,3.2914,0,0,0,0,0,0,0,3.2739,3.2748,3.2839,3.2812,3.2812,3.2804,3.281,3.2857,3.2865,3.2831,3.2829,3.2835,3.2876,3.2893,3.2897,3.2971,3.2908,3.2912,3.2915,3.2916,3.3106,3.3108,0,0,0,0,0,0,3.2736,3.2745,3.2837,3.284,3.2771,3.2808,3.2814,3.2838,3.2865,3.2867,3.2837,3.2834,3.2887,3.2893,3.2899,3.2985,3.2913,3.2917,3.2919,3.3103,3.3106,3.3109,0,0,0,0,0,0,3.2733,3.2744,3.2835,3.2792,3.2803,3.2813,3.284,3.284,3.2856,3.2869,3.2871,3.2852,3.2885,3.2893,3.295,3.2986,3.2919,3.2922,3.31,3.3104,3.3107,3.3155,0,0,0,0,0,0,3.2729,3.2743,3.277,3.2793,3.2806,3.2885,3.2842,3.2843,3.2863,3.2859,3.2884,3.2886,3.2884,3.2944,3.2954,3.299,3.2926,3.3097,3.3102,3.3106,3.315,3.316,3.3168,0,0,0,0,0,3.2725,3.2781,3.2771,3.2783,3.2839,3.2887,3.2894,3.2892,3.2866,3.2893,3.2903,3.2885,3.2981,3.295,3.2961,3.2999,3.3095,3.31,3.3106,3.3146,3.3158,3.3168,0,0,0,0,0,0,3.276,3.2783,3.2773,3.2838,3.2861,3.2882,3.2916,3.2904,3.2934,3.2929,3.2924,3.293,3.2989,3.3,3.2965,3.307,3.3034,3.3042,3.3061,3.3072,3.3081,3.3077,3.2929,0,0,0,0,0,3.2776,3.2813,3.2831,3.2886,3.2899,3.2906,3.2926,3.2922,3.2946,3.2955,3.2968,3.2991,3.3027,3.305,3.3083,3.3152,3.3158,3.3184,3.3193,3.32,3.3207,3.3246,3.3259,3.3127,3.3127,3.3127,0,0,3.2808,3.2825,3.2849,3.2894,3.2911,3.295,3.2914,3.2956,3.2985,3.2961,3.3016,3.3027,3.3052,3.3116,3.3145,3.3127,3.3245,3.3208,3.3213,3.3217,3.3254,3.3266,3.3277,3.3131,3.3131,3.313,0,0,3.2886,3.2903,3.2951,3.297,3.2997,3.3002,3.3014,3.3037,3.3043,3.3099,3.3082,3.3117,3.3177,3.3197,3.3215,3.3303,3.3289,3.3314,3.3361,3.3399,3.341,3.3419,3.3451,3.3463,3.3321,3.3322,3.3322,0,3.2922,3.298,3.2978,3.3022,3.3043,3.3025,3.3075,3.3093,3.3129,3.3144,3.3124,3.3201,3.3217,3.3286,3.3308,3.3323,3.3336,3.3311,3.3408,3.3418,3.3426,3.3457,3.3469,3.3325,3.3324,3.3324,3.3324,0,3.3024,3.3065,3.3101,3.3138,3.3163,3.321,3.3215,3.324,3.3235,3.3242,3.3299,3.3318,3.3356,3.3372,3.3366,3.3441,3.3429,3.3409,3.3372,3.3442,3.3471,3.3482,3.3329,3.3328,3.3327,3.3326,0,0,3.3124,3.3161,3.3174,3.3192,3.3222,3.3253,3.33,3.3337,3.336,3.3387,3.3426,3.3479,3.3461,3.3482,3.3479,3.3512,3.3583,3.3488,3.3489,3.3505,3.3667,3.3682,3.3696,3.3574,3.3576,3.3578,3.3665,0,3.3205,3.3287,3.3287,3.3362,3.3401,3.3385,3.3426,3.3449,3.3458,3.3491,3.35,3.3539,3.3512,3.3524,3.3557,3.3567,3.3615,3.3561,3.361,3.3612,3.3604,3.3711,3.3726,3.3808,3.3676,3.3678,3.3679,0,3.331,3.3341,3.3421,3.3447,3.3463,3.35,3.3535,3.3568,3.3594,3.3598,3.3622,3.3615,3.3663,3.3625,3.3692,3.3656,3.3676,3.3685,3.3688,3.3692,3.365,3.3718,3.3833,3.3846,3.3697,3.3696,3.3694,0,3.3376,3.3438,3.3494,3.3509,3.3541,3.3567,3.3582,3.3606,3.3629,3.366,3.3676,3.3712,3.3732,3.376,3.3763,3.3735,3.3831,3.3793,3.3836,3.3836,3.3856,3.3854,3.3976,3.3869,3.3869,3.3869,3.3868,0,3.3466,3.3515,3.3524,3.3559,3.3614,3.3614,3.3669,3.3682,3.3704,3.3741,3.373,3.3764,3.3766,3.3802,3.3805,3.386,3.3869,3.3874,3.3874,3.3875,3.3875,3.3888,3.3883,3.3872,3.3871,3.3871,3.387,0,3.3548,3.3556,3.3617,3.3643,3.3651,3.369,3.3713,3.3746,3.3754,3.3801,3.3812,3.3825,3.3867,3.3873,3.3922,3.3924,3.3991,3.3985,3.3982,3.3981,3.4024,3.402,3.4158,3.4177,3.4057,3.4059,3.406,0,3.3605,3.3643,3.3674,3.3698,3.3715,3.3754,3.3778,3.378,3.3806,3.384,3.387,3.3911,3.3944,3.4012,3.4026,3.4064,3.4059,3.4105,3.4064,3.4065,3.406,3.4058,3.4062,3.4113,3.4114,3.4115,3.4116,0,3.3706,3.3708,3.3744,3.3782,3.3811,3.3841,3.3869,3.389,3.3896,3.3925,3.3969,3.3995,3.4046,3.4087,3.4125,3.414,3.413,3.4129,3.4141,3.4142,3.4139,3.4142,3.4004,3.4125,3.4124,3.4124,3.4123,3.4123,3.3778,3.3811,3.3839,3.3879,3.3901,3.3928,3.3961,3.3974,3.4011,3.4053,3.4052,3.41,3.4127,3.4178,3.4196,3.4233,3.4218,3.4235,3.424,3.4244,3.4248,3.4133,3.424,3.424,3.424,3.424,3.4239,0,3.3878,3.3895,3.3933,3.3973,3.4005,3.3994,3.4024,3.4052,3.4095,3.4121,3.4155,3.4206,3.4247,3.4264,3.4305,3.4332,3.4328,3.4342,3.434,3.4344,3.4259,3.4245,3.4345,3.4345,3.4345,3.4345,3.4345,3.4345,3.3934,3.3991,3.3997,3.4065,3.4082,3.413,3.4149,3.4174,3.4195,3.4253,3.4287,3.4299,3.4322,3.4364,3.4402,3.4406,3.4421,3.4438,3.444,3.436,3.435,3.434,3.4326,3.4441,3.4441,3.4522,3.4522,3.4523]},{"header":{"parameterUnit":"m.s-1","parameterCategory":1,"la1":30.2991,"la2":30.254,"lo1":-89.0895,"lo2":-89.0444,"dx":0.0017,"dy":0.0017,"nx":28,"ny":28,"refTime":"2022-12-15T09:00:00:Z","depth":0,"parameterNumber":3,"parameterNumberName":"V-component_of_WINDS"},"data":[0,0,0,0,0,0,0,0,0,0,0,0,0,0,0,0,0,0,0,0,0,0,0,0,0,0,0,0,0,0,0,0,0,0,0,0,0,0,0,0,0,0,0,0,0,0,0,0,0,0,0,0,0,0,0,0,0,0,-5.3344,-5.3345,0,-5.3506,-5.3508,-5.351,-5.3504,-5.3501,-5.3499,-5.3497,-5.3661,-5.3667,-5.3674,0,0,0,0,0,0,0,0,0,0,0,0,0,-5.3026,-5.3032,-5.3343,-5.3345,-5.3347,-5.3506,-5.3508,-5.351,-5.3504,-5.3501,-5.3499,-5.3496,-5.3659,-5.3666,-5.3674,0,0,0,0,0,0,0,0,0,0,0,0,0,-5.3174,-5.3034,-5.3343,-5.3364,-5.3367,-5.3505,-5.3508,-5.3511,-5.3505,-5.3501,-5.3498,-5.3495,-5.3656,-5.3666,-5.3675,-5.3803,0,0,-5.3705,-5.3709,0,0,0,0,0,0,0,0,-5.3166,-5.3186,-5.3358,-5.3362,-5.3367,-5.3481,-5.3456,-5.3609,-5.3506,-5.3452,-5.3497,-5.3493,-5.3604,-5.3617,-5.3655,-5.3811,-5.3818,-5.3706,-5.3712,-5.3716,-5.3718,0,0,0,0,0,0,0,-5.3155,-5.3179,-5.3408,-5.3361,-5.3366,-5.3364,-5.3381,-5.3485,-5.3545,-5.3457,-5.3457,-5.3476,-5.3605,-5.3646,-5.3659,-5.382,-5.3705,-5.3714,-5.372,-5.3724,-5.409,-5.4094,0,0,0,0,0,0,-5.3141,-5.317,-5.3402,-5.3412,-5.3256,-5.3373,-5.3392,-5.3448,-5.3544,-5.3555,-5.3479,-5.3475,-5.3631,-5.3648,-5.3665,-5.3822,-5.3716,-5.3725,-5.373,-5.4086,-5.4091,-5.4095,0,0,0,0,0,0,-5.3134,-5.3162,-5.3396,-5.3292,-5.3321,-5.3382,-5.3444,-5.3453,-5.3494,-5.3561,-5.3571,-5.351,-5.3629,-5.3651,-5.3769,-5.3828,-5.3729,-5.3738,-5.4082,-5.4088,-5.4093,-5.4137,0,0,0,0,0,0,-5.3125,-5.3159,-5.3209,-5.3293,-5.3327,-5.3498,-5.3448,-5.3458,-5.3511,-5.3507,-5.3592,-5.3603,-5.3628,-5.3755,-5.3779,-5.3839,-5.3746,-5.4077,-5.4084,-5.4091,-5.413,-5.4143,-5.4154,0,0,0,0,0,-5.3114,-5.3213,-5.3211,-5.3239,-5.339,-5.3501,-5.3521,-5.3549,-5.3515,-5.3565,-5.3609,-5.36,-5.3817,-5.3767,-5.3794,-5.3858,-5.4073,-5.4082,-5.4091,-5.4125,-5.4141,-5.4154,0,0,0,0,0,0,-5.3133,-5.3225,-5.3223,-5.3353,-5.342,-5.35,-5.3564,-5.3564,-5.3641,-5.3634,-5.3665,-5.3684,-5.3802,-5.3842,-5.3784,-5.3988,-5.3941,-5.3956,-5.3958,-5.3973,-5.3985,-5.3973,-5.3754,0,0,0,0,0,-5.3153,-5.3237,-5.3312,-5.3419,-5.3453,-5.3503,-5.3552,-5.3568,-5.3638,-5.3666,-5.3718,-5.3785,-5.3869,-5.3923,-5.4003,-5.4136,-5.4155,-5.4193,-5.4205,-5.4215,-5.4227,-5.4302,-5.432,-5.4124,-5.4124,-5.4124,0,0,-5.3194,-5.3254,-5.3305,-5.3425,-5.3478,-5.3564,-5.3526,-5.3618,-5.3683,-5.3679,-5.3795,-5.3835,-5.3913,-5.4039,-5.4097,-5.4076,-5.4286,-5.4226,-5.4233,-5.4241,-5.4313,-5.4331,-5.4348,-5.413,-5.4129,-5.4128,0,0,-5.3313,-5.3367,-5.3463,-5.3518,-5.36,-5.3633,-5.3656,-5.3737,-5.3765,-5.3881,-5.3881,-5.3957,-5.41,-5.4156,-5.4203,-5.4345,-5.4341,-5.437,-5.4433,-5.4506,-5.4521,-5.4535,-5.4587,-5.4605,-5.4382,-5.4382,-5.4383,0,-5.3353,-5.3483,-5.3512,-5.3606,-5.3658,-5.3661,-5.3759,-5.381,-5.3914,-5.3951,-5.3925,-5.4106,-5.4158,-5.4298,-5.4333,-5.4371,-5.4399,-5.4361,-5.4517,-5.4531,-5.4544,-5.4594,-5.4613,-5.4386,-5.4385,-5.4385,-5.4385,0,-5.3529,-5.362,-5.3687,-5.3789,-5.385,-5.3945,-5.3988,-5.4046,-5.4057,-5.4092,-5.4211,-5.4274,-5.4368,-5.4403,-5.4413,-5.4545,-5.4529,-5.451,-5.4464,-5.4565,-5.4613,-5.4632,-5.439,-5.4389,-5.4388,-5.4387,0,0,-5.3664,-5.3782,-5.3807,-5.3854,-5.3945,-5.4015,-5.4111,-5.4204,-5.4254,-5.4325,-5.4407,-5.4528,-5.4512,-5.4565,-5.4582,-5.4646,-5.4756,-5.4619,-5.4621,-5.4643,-5.4906,-5.4921,-5.4942,-5.4754,-5.4757,-5.476,-5.49,0,-5.3793,-5.3964,-5.3993,-5.4142,-5.4227,-5.4231,-5.4315,-5.438,-5.4416,-5.4493,-5.4532,-5.4619,-5.459,-5.4622,-5.4685,-5.4729,-5.4809,-5.4719,-5.4829,-5.4833,-5.4811,-5.4967,-5.4982,-5.5111,-5.4919,-5.4922,-5.4924,0,-5.3966,-5.4044,-5.4202,-5.4284,-5.4321,-5.4395,-5.4484,-5.4557,-5.4632,-5.4653,-5.4714,-5.4725,-5.4824,-5.4774,-5.4912,-5.485,-5.4897,-5.4925,-5.4931,-5.4943,-5.4885,-5.4983,-5.5153,-5.5172,-5.4953,-5.4951,-5.4949,0,-5.405,-5.4194,-5.4308,-5.4348,-5.4446,-5.4499,-5.4542,-5.4613,-5.4668,-5.4745,-5.4781,-5.4869,-5.4917,-5.4984,-5.5018,-5.4978,-5.5154,-5.5106,-5.5175,-5.5175,-5.5212,-5.521,-5.5392,-5.5241,-5.5241,-5.5241,-5.524,0,-5.4191,-5.4288,-5.4347,-5.4417,-5.4526,-5.4559,-5.4666,-5.4708,-5.4771,-5.485,-5.4858,-5.4931,-5.4971,-5.5051,-5.5077,-5.5188,-5.5209,-5.523,-5.5236,-5.523,-5.5228,-5.5261,-5.5253,-5.5246,-5.5245,-5.5244,-5.5243,0,-5.4303,-5.4347,-5.4471,-5.4555,-5.4578,-5.4655,-5.4726,-5.4794,-5.4831,-5.493,-5.4955,-5.5012,-5.5106,-5.5147,-5.5261,-5.5279,-5.5407,-5.5406,-5.5382,-5.5384,-5.5452,-5.5445,-5.5663,-5.5694,-5.5522,-5.5523,-5.5525,0,-5.4391,-5.4466,-5.4558,-5.4611,-5.4657,-5.4743,-5.4799,-5.4835,-5.4893,-5.4985,-5.5042,-5.5136,-5.5214,-5.5363,-5.5415,-5.5503,-5.5505,-5.5575,-5.5518,-5.551,-5.5507,-5.5503,-5.5511,-5.5586,-5.5587,-5.5589,-5.559,0,-5.4542,-5.456,-5.4642,-5.4732,-5.48,-5.4872,-5.4943,-5.4986,-5.5032,-5.5098,-5.5195,-5.5255,-5.5373,-5.5467,-5.5559,-5.5603,-5.5605,-5.5608,-5.5629,-5.5623,-5.5607,-5.5618,-5.5411,-5.5602,-5.5601,-5.56,-5.56,-5.5599,-5.4645,-5.4713,-5.4789,-5.488,-5.4937,-5.5003,-5.5072,-5.5118,-5.52,-5.53,-5.5316,-5.5419,-5.5493,-5.5617,-5.5665,-5.5746,-5.5729,-5.5759,-5.5767,-5.5774,-5.5779,-5.5594,-5.5763,-5.5763,-5.5762,-5.5762,-5.5762,0,-5.4798,-5.4847,-5.4931,-5.5031,-5.5103,-5.5099,-5.5177,-5.5238,-5.5329,-5.5398,-5.5475,-5.5587,-5.5678,-5.5738,-5.583,-5.5884,-5.5888,-5.5907,-5.5904,-5.5914,-5.5788,-5.5761,-5.5903,-5.5903,-5.5903,-5.5903,-5.5903,-5.5903,-5.4886,-5.5,-5.5028,-5.5171,-5.522,-5.5322,-5.5368,-5.5429,-5.5485,-5.561,-5.5686,-5.5725,-5.5791,-5.5888,-5.5972,-5.5987,-5.6021,-5.6043,-5.6057,-5.5938,-5.5923,-5.5909,-5.5884,-5.6049,-5.605,-5.6177,-5.6178,-5.6179]}]]